Location: Mountain View
(37.3861°N, 122.0839°W)
Time: 20:39:35
(UTC-07:00)

Envisat - Pass Details

Date: 10 May 2026
Orbit: 761 x 763 km, 98.4° (Epoch: 9 June)

Event Time Altitude Azimuth Distance (km) Brightness Sun altitude
Rises 03:27:07 0° 16° (NNE) 3,230 7.3 -25.5°
Reaches altitude 10° 03:29:28 10° 20° (NNE) 2,300 6.4 -25.3°
Maximum altitude 03:34:28 61° 101° (E) 862 3.3 -24.6°
Enters shadow 03:35:39 47° 153° (SSE) 998 3.4 -24.5°
